LUDI TANCE-4 01A

Last updated on Mon Sep 15 2025 00:02:51 GMT+0000 (Coordinated Universal Time)

1 57624U 23120A 25256.84280980 -.00000196 00000+0 00000+0 0 9996 2 57624 15.3090 200.8030 0003757 48.5007 136.7033 1.00266584 7779
UTC large
Height (km)
Speed (km/s)
/
Latitude / Longitude
Inclination (degrees)
Orbital Period (minutes)
Azimuth
Elevation
Range (km)
Doppler Factor

Next 0 passes for location: London (51.5072 / 0.1276)

Sorry there are no passes over London.